[[{"header":{"parameterUnit":"m.s-1","parameterCategory":1,"la1":30.2992,"la2":30.254,"lo1":-89.0895,"lo2":-89.0443,"dy":0.0025,"dx":0.0025,"nx":19,"ny":19,"refTime":"2026-05-01T21:00:00:Z","depth":0,"parameterNumber":2,"parameterNumberName":"U-component_of_WINDS"},"data":[0,0,0,-3.0255,-3.0261,-3.0575,-3.0577,-3.0979,-3.0983,0,0,0,0,0,0,0,0,0,0,0,-3.0162,-3.0164,-3.0254,-3.0262,-3.0575,-3.0577,-3.0979,-3.0983,0,0,0,0,0,0,0,0,0,0,0,-3.016,-3.0164,-3.0167,-3.0263,-3.0575,-3.0577,-3.0978,-3.0741,0,0,0,0,0,0,0,0,0,0,-3.0436,-3.035,-3.0163,-3.0167,-3.0265,-3.0575,-3.0577,-3.0729,-3.0756,-3.0837,0,-3.0909,0,-3.0953,-3.101,-3.1011,0,0,0,-3.0262,-3.0328,-3.0412,-3.0168,-3.0268,-3.0574,-3.0434,-3.0744,-3.0774,-3.0872,-3.0915,-3.093,-3.0959,-3.1013,-3.1015,-3.1483,-3.1485,0,0,-3.0245,-3.0219,-3.0392,-3.0432,-3.0382,-3.0424,-3.0444,-3.0762,-3.0808,-3.0917,-3.094,-3.0966,-3.1015,-3.1018,-3.1481,-3.1483,0,0,0,-3.0195,-3.0207,-3.0283,-3.0415,-3.0471,-3.0433,-3.0456,-3.0794,-3.082,-3.0944,-3.0971,-3.1018,-3.1023,-3.1478,-3.1482,-3.1564,0,0,0,-3.0184,-3.0177,-3.0275,-3.0262,-3.0465,-3.0636,-3.048,-3.0798,-3.0835,-3.0969,-3.1018,-3.1026,-3.1476,-3.148,-3.1557,-3.1609,0,0,0,-3.0141,-3.0172,-3.0217,-3.026,-3.0394,-3.0632,-3.0677,-3.0807,-3.0852,-3.1012,-3.1028,-3.1474,-3.1479,-3.1551,-3.1599,-3.1726,0,0,0,-3.0088,-3.0287,-3.0218,-3.0451,-3.0391,-3.0679,-3.0675,-3.0891,-3.1038,-3.102,-3.1476,-3.1481,-3.1549,-3.1592,-3.1719,-3.183,-3.1874,0,0,-3.0325,-3.0315,-3.0454,-3.0401,-3.0695,-3.0633,-3.094,-3.11,-3.1139,-3.1366,-3.1378,-3.156,-3.1598,-3.1725,-3.212,-3.2154,0,0,0,-3.052,-3.062,-3.0703,-3.0841,-3.0966,-3.1079,-3.1194,-3.1253,-3.1446,-3.125,-3.1639,-3.1663,-3.1738,-3.1793,-3.1822,-3.1889,-3.1505,-3.1504,-3.1504,-3.0821,-3.0859,-3.1091,-3.1167,-3.13,-3.1416,-3.1528,-3.1627,-3.1628,-3.1719,-3.1788,-3.2023,-3.2086,-3.2108,-3.2177,-3.1847,-3.1847,-3.1848,-3.1848,-3.1174,-3.1322,-3.1315,-3.1539,-3.1577,-3.1766,-3.1883,-3.1877,-3.2059,-3.1974,-3.2043,-3.1951,-3.2144,-3.2207,-3.1854,-3.1853,-3.1853,-3.1852,-3.1851,-3.1378,-3.1456,-3.1522,-3.1724,-3.1876,-3.1944,-3.2119,-3.2147,-3.2176,-3.2243,-3.2319,-3.2318,-3.2323,-3.2276,-3.2277,-3.2278,-3.2279,-3.2279,-3.228,-3.1565,-3.1637,-3.178,-3.1928,-3.202,-3.2144,-3.2259,-3.235,-3.2459,-3.2466,-3.2467,-3.2459,-3.2154,-3.2079,-3.2293,-3.2291,-3.2289,-3.2288,-3.2287,-3.1915,-3.184,-3.2061,-3.2153,-3.2328,-3.2476,-3.2508,-3.2691,-3.277,-3.2856,-3.2831,-3.2601,-3.2593,-3.2571,-3.2509,-3.2821,-3.2821,-3.2821,-3.2821,-3.209,-3.2087,-3.2319,-3.2464,-3.2608,-3.2659,-3.2908,-3.2998,-3.308,-3.3132,-3.3089,-3.3008,-3.2983,-3.2991,-3.2959,-3.2902,-3.3308,-3.3308,-3.3309,-3.2308,-3.232,-3.2528,-3.2605,-3.2743,-3.2862,-3.3097,-3.3263,-3.334,-3.3329,-3.3173,-3.3152,-3.3021,-3.2977,-3.2966,-3.2916,-3.2811,0,0]},{"header":{"parameterUnit":"m.s-1","parameterCategory":1,"la1":30.2992,"la2":30.254,"lo1":-89.0895,"lo2":-89.0443,"dy":0.0025,"dx":0.0025,"nx":19,"ny":19,"refTime":"2026-05-01T21:00:00:Z","depth":0,"parameterNumber":3,"parameterNumberName":"V-component_of_WINDS"},"data":[0,0,0,-7.7755,-7.7758,-7.7844,-7.7845,-7.7992,-7.7993,0,0,0,0,0,0,0,0,0,0,0,-7.7753,-7.7755,-7.7755,-7.7758,-7.7844,-7.7845,-7.7991,-7.7993,0,0,0,0,0,0,0,0,0,0,0,-7.7753,-7.7755,-7.7757,-7.7758,-7.7844,-7.7845,-7.7991,-7.7912,0,0,0,0,0,0,0,0,0,0,-7.7822,-7.7844,-7.7754,-7.7757,-7.7759,-7.7844,-7.7845,-7.7908,-7.7917,-7.7968,0,-7.8022,0,-7.801,-7.8006,-7.8006,0,0,0,-7.774,-7.7837,-7.7838,-7.7757,-7.776,-7.7844,-7.78,-7.7913,-7.7923,-7.7981,-7.8024,-7.8028,-7.8013,-7.8007,-7.8008,-7.8366,-7.8369,0,0,-7.7735,-7.7782,-7.7831,-7.7846,-7.7837,-7.7798,-7.7803,-7.7918,-7.7968,-7.8024,-7.8031,-7.8015,-7.8008,-7.8009,-7.8364,-7.8367,0,0,0,-7.7733,-7.7779,-7.7777,-7.7841,-7.7854,-7.7801,-7.7807,-7.7962,-7.7958,-7.8032,-7.8017,-7.8009,-7.8011,-7.8361,-7.8365,-7.8535,0,0,0,-7.773,-7.7778,-7.7776,-7.7806,-7.7853,-7.791,-7.7849,-7.795,-7.7961,-7.8016,-7.8009,-7.8013,-7.8358,-7.8363,-7.8524,-7.8607,0,0,0,-7.774,-7.7779,-7.78,-7.7808,-7.7847,-7.7907,-7.7908,-7.7951,-7.7953,-7.8006,-7.8014,-7.8356,-7.8362,-7.8514,-7.8591,-7.8714,0,0,0,-7.7764,-7.7951,-7.7804,-7.8006,-7.7847,-7.8012,-7.7907,-7.8028,-7.8094,-7.801,-7.8358,-7.8364,-7.8511,-7.8582,-7.8704,-7.8826,-7.8881,0,0,-7.8026,-7.7984,-7.8099,-7.797,-7.8174,-7.7995,-7.8222,-7.8238,-7.82,-7.8312,-7.832,-7.8527,-7.859,-7.8712,-7.9175,-7.922,0,0,0,-7.8198,-7.8282,-7.8325,-7.8391,-7.8407,-7.8427,-7.8403,-7.8408,-7.8501,-7.8268,-7.8604,-7.864,-7.8709,-7.8765,-7.8803,-7.8858,-7.8392,-7.8392,-7.8391,-7.8638,-7.8578,-7.8764,-7.8715,-7.8779,-7.8751,-7.8796,-7.8798,-7.872,-7.8801,-7.8834,-7.9122,-7.9189,-7.9217,-7.9276,-7.8893,-7.8894,-7.8895,-7.8895,-7.9016,-7.9124,-7.9014,-7.9154,-7.9089,-7.9206,-7.9185,-7.9126,-7.9224,-7.9093,-7.9151,-7.9013,-7.9268,-7.9316,-7.8907,-7.8905,-7.8904,-7.8902,-7.8901,-7.9298,-7.9338,-7.9341,-7.9426,-7.9499,-7.9441,-7.954,-7.9477,-7.9419,-7.9476,-7.9503,-7.95,-7.9488,-7.9493,-7.9494,-7.9495,-7.9496,-7.9497,-7.9498,-7.9588,-7.9585,-7.9677,-7.9708,-7.9739,-7.9773,-7.9744,-7.9774,-7.979,-7.9736,-7.9736,-7.9649,-7.9304,-7.9218,-7.9513,-7.951,-7.9508,-7.9507,-7.9506,-7.9994,-7.9891,-8.0032,-8.0064,-8.0093,-8.0167,-8.0085,-8.0149,-8.0164,-8.0214,-8.0114,-7.987,-7.9823,-7.9792,-7.9721,-8.0127,-8.0127,-8.0127,-8.0128,-8.023,-8.0199,-8.0328,-8.0382,-8.0428,-8.0367,-8.0526,-8.0505,-8.0467,-8.0471,-8.0403,-8.0303,-8.0275,-8.0244,-8.0204,-8.0136,-8.0639,-8.064,-8.064,-8.0475,-8.0445,-8.0594,-8.0554,-8.0571,-8.0587,-8.0734,-8.08,-8.0735,-8.066,-8.0473,-8.0452,-8.0289,-8.024,-8.0161,-8.0101,-7.9975,0,0]}]]